Location: Newark
(45.9456°N, 15.4064°E)
Time: 10:49:17
(UTC+00:00)

Vanguard 3 - Visible Passes

Search period start: 24 January 2020 00:00
Search period end: 03 February 2020 00:00
Orbit: 507 x 3263 km, 33.4° (Epoch: 24 January)

Date Brightness Start Highest point End Pass type
(mag) Time Alt. Az. Time Alt. Az. Time Alt. Az.
24 Jan 10.3 17:12:04 10° SW 17:30:28 48° SSE 17:41:43 19° ESE visible
24 Jan 9.6 19:27:38 10° WSW 19:44:55 49° S 19:46:17 48° S visible
24 Jan 10.7 21:45:06 10° W 21:50:51 21° WSW 21:50:51 21° WSW visible
25 Jan 10.7 15:56:39 10° SW 16:14:19 43° SSE 16:29:33 10° E visible
25 Jan 9.9 18:10:40 10° WSW 18:29:13 52° S 18:36:27 33° SE visible
25 Jan 10.0 20:27:19 10° W 20:41:01 40° SW 20:41:01 40° SW visible
26 Jan 10.4 16:54:24 10° WSW 17:13:04 51° S 17:26:38 14° ESE visible
26 Jan 9.7 19:09:55 10° WSW 19:27:49 50° SSW 19:31:12 45° SSE visible
26 Jan 10.6 21:27:31 10° W 21:35:46 25° WSW 21:35:46 25° WSW visible
27 Jan 10.1 17:53:02 10° WSW 18:11:55 54° S 18:21:24 27° ESE visible
27 Jan 10.0 20:09:37 10° W 20:25:56 41° SSW 20:25:58 41° SSW visible
27 Jan 11.1 22:29:07 10° W 22:30:32 12° WSW 22:30:32 12° WSW visible
28 Jan 10.5 16:36:53 10° WSW 16:55:36 53° S 17:11:30 10° ESE visible
28 Jan 9.9 18:52:16 10° W 19:10:34 50° SSW 19:16:11 38° SSE visible
28 Jan 10.5 21:09:57 10° W 21:20:46 28° SW 21:20:46 28° SW visible
29 Jan 10.3 17:35:32 10° WSW 17:54:31 54° S 18:06:26 20° ESE visible
29 Jan 10.0 19:51:59 10° W 20:08:44 41° SSW 20:11:01 39° S visible
29 Jan 11.0 22:11:59 10° W 22:15:35 14° WSW 22:15:35 14° WSW visible
30 Jan 10.5 16:19:33 10° WSW 16:38:04 54° S 16:54:50 10° ESE visible
30 Jan 10.1 18:34:44 10° W 18:53:13 49° SSW 19:01:18 30° SE visible
30 Jan 10.5 20:52:27 10° W 21:05:52 28° SW 21:05:52 28° SW visible
31 Jan 10.4 17:18:10 10° WSW 17:37:02 55° S 17:51:38 14° ESE visible
31 Jan 10.2 19:34:27 10° W 19:51:23 39° SSW 19:56:12 33° S visible
31 Jan 11.0 21:55:01 10° W 22:00:47 15° WSW 22:00:47 15° WSW visible
01 Feb 10.6 16:02:23 10° WSW 16:20:30 55° S 16:38:01 10° ESE visible
01 Feb 10.4 18:17:19 10° W 18:35:46 49° SSW 18:46:35 23° SE visible
01 Feb 10.5 20:35:02 10° W 20:48:51 27° SW 20:51:11 26° SSW visible
02 Feb 10.5 17:00:57 10° WSW 17:19:30 54° S 17:36:11 10° ESE visible
02 Feb 10.4 19:17:01 10° W 19:33:56 38° SSW 19:41:38 26° S visible
02 Feb 11.0 21:38:18 10° WSW 21:45:38 14° SW 21:46:13 14° SW visible
